Location: Unspecified
(32.5099°N, 80.0190°W)
Time: 07:24:34
(UTC-04:00)

CZ-3 Stage 3 - Visible Passes

Search period start: 21 April 2018 00:00
Search period end: 01 May 2018 00:00
Orbit: 435 x 34761 km, 31.0° (Epoch: 20 April)

Date Brightness Start Highest point End Pass type
(mag) Time Alt. Az. Time Alt. Az. Time Alt. Az.
21 Apr 10.3 02:37:53 10° ESE 05:38:22 29° ESE 06:35:46 10° E visible
22 Apr 5.5 05:32:55 10° SSW 07:54:28 19° SW 13:52:50 10° E visible
23 Apr 7.7 01:41:28 10° SSE 09:52:04 66° SSE 10:15:37 10° E visible
24 Apr 10.2 02:23:36 10° ESE 05:28:34 30° ESE 06:26:39 10° E visible
25 Apr 5.5 05:21:09 10° SSW 07:44:19 19° SW 13:43:22 10° E visible
26 Apr 7.7 01:30:30 10° SSE 09:42:23 67° SSE 10:06:09 10° E visible
27 Apr 10.1 02:09:22 10° ESE 05:18:43 30° ESE 06:17:30 10° E visible
28 Apr 5.6 05:09:26 10° SSW 07:34:01 20° SW 13:33:53 10° E visible
29 Apr 7.8 01:19:28 10° SSE 09:32:39 68° SSE 09:56:39 10° E visible
30 Apr 10.0 01:55:09 10° ESE 05:08:46 31° ESE 06:08:18 10° E visible
